Location: Zagreb
(45.8000°N, 16.0000°E)
Time: 19:57:25
(UTC+01:00)

deb Explorer IX - Pass Details

Date: 10 October 2020
Orbit: 537 x 1106 km, 38.8° (Epoch: 30 October)

Event Time Altitude Azimuth Distance (km) Brightness Sun altitude
Rises 14:12:45 0° 239° (WSW) 3,804 ? 33.6°
Reaches altitude 10° 14:15:47 10° 231° (SW) 2,786 ? 33.3°
Maximum altitude 14:21:51 37° 167° (SSE) 1,403 ? 32.8°
Drops below altitude 10° 14:27:11 10° 102° (ESE) 2,439 ? 32.3°
Sets 14:29:40 0° 94° (E) 3,279 ? 32.1°
